DW7027 Weather Reports


Display with metric or nautical units.
time (UTC)temp
F
wind
direction
speed
MPH
gust
MPH
rain 1hr
in
rain 24hr
in
rain mn
in
humidity
%
barometer
mb
20260508175704 64 40 7.0 16.0 0.00 0.00 0.00 56 1020.5
20260508175204 64 24 7.0 17.0 0.00 0.00 0.00 56 1020.5
20260508174704 64 5 7.0 13.0 0.00 0.00 0.00 54 1020.6
20260508174204 65 2 7.0 15.0 0.00 0.00 0.00 53 1020.5
20260508173704 65 33 7.0 13.0 0.00 0.00 0.00 52 1020.3
20260508173206 65 13 6.0 10.0 0.00 0.00 0.00 51 1020.4
20260508172705 66 13 6.0 10.0 0.00 0.00 0.00 50 1020.1
20260508171704 66 38 5.0 9.0 0.00 0.00 0.00 49 1020.2
20260508171204 67 14 4.0 8.0 0.00 0.00 0.00 48 1020.1
20260508170704 67 19 3.0 6.0 0.00 0.00 0.00 48 1020.2
20260508170204 67 359 6.0 9.0 0.00 0.00 0.00 47 1020.1
20260508165704 67 7 5.0 12.0 0.00 0.00 0.00 47 1020.3
20260508164704 68 35 4.0 10.0 0.00 0.00 0.00 45 1020.3
20260508163704 68 329 5.0 8.0 0.00 0.00 0.00 43 1020.3
20260508162204 69 3 4.0 8.0 0.00 0.00 0.00 43 1020.3
20260508161705 69 0 4.0 8.0 0.00 0.00 0.00 42 1020.5
20260508161204 70 347 5.0 12.0 0.00 0.00 0.00 42 1020.3
20260508160704 70 342 6.0 12.0 0.00 0.00 0.00 42 1020.4
20260508160204 70 319 4.0 9.0 0.00 0.00 0.00 43 1020.4
20260508155704 70 324 1.0 7.0 0.00 0.00 0.00 43 1020.3
20260508155204 70 7 3.0 8.0 0.00 0.00 0.00 42 1020.4
20260508154704 71 302 2.0 6.0 0.00 0.00 0.00 43 1020.3
20260508152705 71 348 5.0 8.0 0.00 0.00 0.00 41 1020.4
20260508152204 72 326 6.0 13.0 0.00 0.00 0.00 40 1020.4
20260508151704 72 342 5.0 12.0 0.00 0.00 0.00 41 1020.4
20260508151205 72 278 5.0 12.0 0.00 0.00 0.00 41 1020.4
20260508150204 71 287 6.0 9.0 0.00 0.00 0.00 41 1020.4
20260508145705 71 293 3.0 9.0 0.00 0.00 0.00 42 1020.4
20260508145204 71 345 6.0 14.0 0.00 0.00 0.00 41 1020.6
20260508144704 71 331 6.0 9.0 0.00 0.00 0.00 41 1020.4
20260508144204 72 338 6.0 9.0 0.00 0.00 0.00 39 1020.6
20260508143704 72 332 6.0 10.0 0.00 0.00 0.00 41 1020.7
20260508143204 71 291 3.0 6.0 0.00 0.00 0.00 43 1020.6
20260508142204 71 350 5.0 10.0 0.00 0.00 0.00 41 1020.8
20260508141704 72 327 3.0 8.0 0.00 0.00 0.00 40 1020.8
20260508141204 72 271 2.0 8.0 0.00 0.00 0.00 42 1020.8
20260508140205 71 291 3.0 10.0 0.00 0.00 0.00 41 1020.8
20260508135704 71 275 4.0 9.0 0.00 0.00 0.00 42 1020.9
20260508135204 72 321 6.0 10.0 0.00 0.00 0.00 42 1021.0
20260508134704 72 289 7.0 10.0 0.00 0.00 0.00 42 1021.0
20260508134204 71 247 3.0 5.0 0.00 0.00 0.00 44 1020.8
20260508133704 70 275 3.0 7.0 0.00 0.00 0.00 44 1020.9
20260508133205 70 311 4.0 9.0 0.00 0.00 0.00 45 1021.2
20260508132704 69 282 4.0 8.0 0.00 0.00 0.00 45 1021.1
20260508132204 70 275 3.0 10.0 0.00 0.00 0.00 44 1021.2
20260508131704 70 320 3.0 9.0 0.00 0.00 0.00 44 1021.3
20260508131204 71 319 4.0 8.0 0.00 0.00 0.00 44 1021.1
20260508130705 71 311 2.0 8.0 0.00 0.00 0.00 43 1021.1
20260508130205 72 280 7.0 10.0 0.00 0.00 0.00 43 1021.1
20260508125704 72 184 3.0 5.0 0.00 0.00 0.00 43 1021.2
20260508125204 72 268 5.0 12.0 0.00 0.00 0.00 44 1021.5
20260508124704 71 346 5.0 12.0 0.00 0.00 0.00 43 1021.2
20260508123704 70 303 4.0 10.0 0.00 0.00 0.00 45 1021.3
20260508123204 70 287 5.0 9.0 0.00 0.00 0.00 45 1021.3
20260508122204 69 297 5.0 12.0 0.00 0.00 0.00 45 1021.4
20260508121704 69 258 3.0 10.0 0.00 0.00 0.00 45 1021.3
20260508121204 69 353 5.0 9.0 0.00 0.00 0.00 45 1021.2
20260508120704 70 324 4.0 10.0 0.00 0.00 0.00 45 1021.2
20260508120204 70 346 5.0 10.0 0.00 0.00 0.00 44 1021.3
20260508115704 69 3 7.0 10.0 0.00 0.00 0.00 47 1021.2
20260508115204 69 277 2.0 9.0 0.00 0.00 0.00 47 1021.3
20260508114704 68 359 5.0 8.0 0.00 0.00 0.00 47 1021.2
20260508114204 69 346 5.0 9.0 0.00 0.00 0.00 45 1021.5
20260508113205 70 286 4.0 10.0 0.00 0.00 0.00 46 1021.5
20260508112704 70 277 3.0 9.0 0.00 0.00 0.00 47 1021.7
20260508112204 71 302 3.0 7.0 0.00 0.00 0.00 47 1021.4
20260508111704 70 44 6.0 10.0 0.00 0.00 0.00 49 1021.3
20260508111204 69 199 2.0 7.0 0.00 0.00 0.00 47 1021.5
20260508110704 69 328 5.0 9.0 0.00 0.00 0.00 49 1021.6
20260508110204 68 350 3.0 7.0 0.00 0.00 0.00 50 1021.6
20260508105704 68 295 5.0 9.0 0.00 0.00 0.00 49 1021.6
20260508105204 68 293 7.0 10.0 0.00 0.00 0.00 49 1021.7
20260508104704 68 310 3.0 5.0 0.00 0.00 0.00 50 1021.7
20260508104204 69 335 3.0 7.0 0.00 0.00 0.00 49 1021.6
20260508103704 69 328 3.0 8.0 0.00 0.00 0.00 50 1021.8
20260508103205 69 348 6.0 10.0 0.00 0.00 0.00 52 1021.7
20260508102704 68 358 6.0 10.0 0.00 0.00 0.00 51 1021.7
20260508102204 68 322 3.0 5.0 0.00 0.00 0.00 51 1021.8
20260508101705 67 193 1.0 7.0 0.00 0.00 0.00 52 1021.8
20260508101204 67 282 5.0 9.0 0.00 0.00 0.00 54 1021.8
20260508100705 67 282 5.0 14.0 0.00 0.00 0.00 53 1021.8
20260508100204 67 287 5.0 13.0 0.00 0.00 0.00 54 1022.0
20260508095704 67 330 4.0 10.0 0.00 0.00 0.00 54 1021.9
20260508095204 67 341 2.0 7.0 0.00 0.00 0.00 55 1022.0
20260508094705 66 314 3.0 7.0 0.00 0.00 0.00 56 1022.0
20260508094205 65 306 3.0 6.0 0.00 0.00 0.00 58 1022.0
20260508093704 65 338 5.0 7.0 0.00 0.00 0.00 56 1022.0
20260508093204 66 328 3.0 9.0 0.00 0.00 0.00 55 1022.0
20260508092704 67 285 5.0 8.0 0.00 0.00 0.00 57 1021.9
20260508091705 65 356 4.0 8.0 0.00 0.00 0.00 59 1022.0
20260508091205 65 324 4.0 9.0 0.00 0.00 0.00 58 1021.9
20260508090704 66 285 7.0 12.0 0.00 0.00 0.00 57 1022.2
20260508090204 66 313 4.0 6.0 0.00 0.00 0.00 57 1022.1
20260508085704 66 301 2.0 6.0 0.00 0.00 0.00 57 1022.2
20260508085204 66 348 3.0 10.0 0.00 0.00 0.00 58 1022.1
20260508084704 66 347 5.0 10.0 0.00 0.00 0.00 60 1022.0
20260508084204 66 0 2.0 5.0 0.00 0.00 0.00 61 1022.1
20260508083704 66 343 3.0 8.0 0.00 0.00 0.00 60 1022.0
20260508083204 66 349 6.0 9.0 0.00 0.00 0.00 60 1022.0
20260508082204 67 347 5.0 9.0 0.00 0.00 0.00 61 1022.1
20260508081705 66 353 2.0 7.0 0.00 0.00 0.00 63 1021.7
20260508081204 65 290 4.0 7.0 0.00 0.00 0.00 64 1022.0
20260508080704 65 286 5.0 8.0 0.00 0.00 0.00 64 1021.9
20260508080204 65 348 3.0 8.0 0.00 0.00 0.00 65 1021.8
20260508075705 65 343 2.0 8.0 0.00 0.00 0.00 65 1021.9
20260508075204 64 357 3.0 6.0 0.00 0.00 0.00 66 1022.1
20260508074204 63 48 3.0 6.0 0.00 0.00 0.00 71 1021.9
20260508073205 61 4 3.0 6.0 0.00 0.00 0.00 73 1022.0
20260508072704 61 346 2.0 6.0 0.00 0.00 0.00 73 1022.0
20260508072204 61 346 3.0 7.0 0.00 0.00 0.00 74 1022.1
20260508071705 61 353 4.0 7.0 0.00 0.00 0.00 74 1022.0
20260508071204 60 282 3.0 6.0 0.00 0.00 0.00 76 1022.2
20260508070704 60 340 3.0 8.0 0.00 0.00 0.00 75 1022.1
20260508070204 60 341 4.0 8.0 0.00 0.00 0.00 75 1022.0
20260508065704 60 79 2.0 7.0 0.00 0.00 0.00 76 1021.9
20260508065204 59 6 3.0 7.0 0.00 0.00 0.00 77 1021.8
20260508064705 59 306 3.0 5.0 0.00 0.00 0.00 77 1021.9
20260508064205 58 337 4.0 8.0 0.00 0.00 0.00 78 1021.7
20260508063704 58 12 2.0 7.0 0.00 0.00 0.00 78 1021.7
20260508063204 57 356 3.0 6.0 0.00 0.00 0.00 78 1021.9
20260508062704 57 290 3.0 6.0 0.00 0.00 0.00 78 1021.9
20260508062205 57 353 2.0 6.0 0.00 0.00 0.00 78 1021.6
20260508061705 56 354 3.0 6.0 0.00 0.00 0.00 79 1021.8
20260508054704 54 350 3.0 6.0 0.00 0.00 0.00 82 1021.5
20260508054208 53 317 3.0 5.0 0.00 0.00 0.00 82 1021.5
20260508053704 53 4 3.0 5.0 0.00 0.00 0.00 82 1021.5
20260508053204 52 5 3.0 5.0 0.00 0.00 0.00 82 1021.3
20260508052705 52 356 4.0 6.0 0.00 0.00 0.00 82 1021.3
20260508052204 52 3 2.0 3.0 0.00 0.00 0.00 82 1021.4
20260508051704 51 0 3.0 5.0 0.00 0.00 0.00 82 1021.3
20260508051204 51 2 2.0 6.0 0.00 0.00 0.00 82 1021.4
20260508050704 53 291 3.0 7.0 0.00 0.00 0.00 80 1020.3
20260508005204 55 285 3.0 5.0 0.00 0.00 0.00 78 1019.6
20260508004704 55 285 2.0 5.0 0.00 0.00 0.00 78 1019.5
20260508004204 55 292 2.0 6.0 0.00 0.00 0.00 78 1019.5
20260508003704 56 348 3.0 6.0 0.00 0.00 0.00 78 1019.5
20260508003204 56 275 2.0 3.0 0.00 0.00 0.00 78 1019.5
20260508002705 56 289 2.0 5.0 0.00 0.00 0.00 78 1019.4
20260508002204 56 359 3.0 6.0 0.00 0.00 0.00 78 1019.4
20260508001705 56 356 2.0 3.0 0.00 0.00 0.00 78 1019.6
20260508001204 56 325 2.0 5.0 0.00 0.00 0.00 78 1019.4
20260508000704 56 331 2.0 5.0 0.00 0.00 0.00 78 1019.4
20260507235706 57 6 3.0 8.0 0.00 0.00 0.00 78 1019.4
20260507235204 57 347 4.0 8.0 0.00 0.00 0.00 78 1019.3
20260507234705 57 356 4.0 8.0 0.00 0.00 0.00 77 1019.3
20260507234205 57 337 4.0 8.0 0.00 0.00 0.00 76 1019.2
20260507233705 57 341 5.0 12.0 0.00 0.00 0.00 76 1019.2
20260507233204 57 341 6.0 12.0 0.00 0.00 0.00 75 1019.1
20260507232704 57 353 4.0 12.0 0.00 0.00 0.00 73 1019.2
20260507232204 57 311 3.0 12.0 0.00 0.00 0.00 73 1019.2
20260507231704 57 287 5.0 10.0 0.00 0.00 0.00 73 1019.2
20260507231204 57 289 6.0 12.0 0.00 0.00 0.00 72 1019.1
20260507225704 57 288 5.0 10.0 0.00 0.00 0.00 72 1018.9
20260507224705 57 281 5.0 10.0 0.00 0.00 0.00 72 1018.9
20260507223704 57 299 3.0 6.0 0.00 0.00 0.00 71 1018.9
20260507223205 58 291 3.0 5.0 0.00 0.00 0.00 70 1018.8
20260507222704 58 269 3.0 5.0 0.00 0.00 0.00 70 1018.8
20260507222205 58 314 2.0 3.0 0.00 0.00 0.00 70 1018.8
20260507221704 58 280 1.0 3.0 0.00 0.00 0.00 70 1018.8
20260507221204 58 303 2.0 2.0 0.00 0.00 0.00 70 1018.7
20260507220704 58 290 2.0 5.0 0.00 0.00 0.00 70 1018.6
20260507220207 58 274 3.0 5.0 0.00 0.00 0.00 70 1018.6
20260507215704 58 270 2.0 3.0 0.00 0.00 0.00 71 1018.6
20260507215204 58 260 2.0 5.0 0.00 0.00 0.00 71 1018.4
20260507213704 58 246 2.0 5.0 0.00 0.00 0.00 73 1018.4
20260507213205 58 257 2.0 5.0 0.00 0.00 0.00 73 1018.5
20260507212705 58 252 1.0 3.0 0.00 0.00 0.00 73 1018.4
20260507211704 58 235 2.0 3.0 0.00 0.00 0.00 73 1018.4
20260507210704 58 197 3.0 6.0 0.00 0.00 0.00 73 1018.4
20260507205204 59 198 3.0 9.0 0.00 0.00 0.00 73 1018.4
20260507204704 59 208 4.0 7.0 0.00 0.00 0.00 72 1018.3
20260507204204 59 203 4.0 8.0 0.00 0.00 0.00 72 1018.3
20260507203205 59 186 3.0 6.0 0.00 0.00 0.00 70 1018.3
20260507202704 59 178 2.0 5.0 0.00 0.00 0.00 70 1018.5
20260507202204 59 202 3.0 3.0 0.00 0.00 0.00 69 1018.4
20260507201205 59 158 1.0 3.0 0.00 0.00 0.00 68 1018.4
20260507200704 59 99 2.0 3.0 0.00 0.00 0.00 68 1018.4
20260507200205 59 44 1.0 2.0 0.00 0.00 0.00 68 1018.3
20260507195704 59 80 2.0 2.0 0.00 0.00 0.00 67 1018.3
20260507195204 59 110 2.0 3.0 0.00 0.00 0.00 67 1018.0
20260507194704 59 64 1.0 2.0 0.00 0.00 0.00 66 1018.1
20260507194205 59 357 1.0 3.0 0.00 0.00 0.00 66 1018.0
20260507193704 59 339 1.0 2.0 0.00 0.00 0.00 66 1017.9
20260507192704 60 263 2.0 3.0 0.00 0.00 0.00 65 1017.8
20260507192204 60 266 2.0 6.0 0.00 0.00 0.00 65 1018.1
20260507191704 60 241 2.0 5.0 0.00 0.00 0.00 65 1017.9
20260507190705 60 269 2.0 5.0 0.00 0.00 0.00 65 1017.6
20260507190204 60 277 3.0 6.0 0.00 0.00 0.00 65 1017.6
20260507185704 61 258 2.0 5.0 0.00 0.00 0.00 65 1017.5
20260507184704 61 246 3.0 5.0 0.00 0.00 0.00 65 1017.3
20260507184205 61 261 2.0 6.0 0.00 0.00 0.00 65 1017.3
20260507183704 61 277 4.0 6.0 0.00 0.00 0.00 65 1017.4
20260507182704 62 273 3.0 6.0 0.00 0.00 0.00 64 1017.3
20260507182204 62 269 3.0 6.0 0.00 0.00 0.00 64 1017.3
20260507181704 62 275 3.0 6.0 0.00 0.00 0.00 63 1017.3
20260507181205 62 282 4.0 7.0 0.00 0.00 0.00 62 1017.3
20260507180704 63 275 3.0 7.0 0.00 0.00 0.00 61 1017.2
20260507180204 63 268 3.0 7.0 0.00 0.00 0.00 59 1017.1